Flag for U.S.A. Weather past 2 weeks in Memphis, Tennessee, U.S.A.

Now
68 °F

Clear.


Feels Like: 68 °F
Forecast: 63 / 84 °F
Wind: 3 mph from Southwest

Location: Memphis International Airport

Current Time: Oct 26, 2014 at 12:19:36 AM

Latest Report: Oct 25, 2014 at 11:54 PM


Visibility: 10 mi

Pressure: 30.01 "Hg

Humidity: 84%

Dew point: 63 °F

Location of MemphisLocation

Historic Weather in Memphis — Graph

°F

Memphis temperature yesterday

Maximum temperature yesterday: 82 °F (at 3:54 PM)
Minimum temperature yesterday: 56 °F (at 5:54 AM)
Average temperature yesterday: 68 °F

Past Weeks' High & Low Weather Summary

 TemperatureHumidityPressure
High82 °F (Oct 25, 3:54 PM)97% (Oct 12, 2:54 AM)30.25 "Hg (Oct 12, 2:54 AM)
Low45 °F (Oct 23, 6:54 AM)33% (Oct 21, 2:54 PM)29.63 "Hg (Oct 14, 2:54 AM)
Average63 °F71%30.00 "Hg
* Reported Oct 10 10:54 PM — Oct 25 10:54 PM, Memphis, Weather by CustomWeather, © 2014

Note: Actual official high and low records may vary slightly from our data, if they occured in-between our weather recording intervals... More about our weather records

Advertising

Memphis weather history for previous 24 hours

 ConditionsComfort  
Time TempWeatherWind HumidityBarometerVisibility
10:54 PM
Oct 25
66 °FClear.No wind87%30.02 "Hg10 mi
9:54 PM67 °FClear.No wind85%30.03 "Hg10 mi
8:54 PM69 °FClear.No wind81%30.03 "Hg10 mi
7:54 PM70 °FClear.5 mph79%30.03 "Hg10 mi
6:54 PM73 °FClear.3 mph71%30.02 "Hg10 mi
5:54 PM78 °FSunny.3 mph58%30.01 "Hg10 mi
4:54 PM81 °FSunny.6 mph54%30.01 "Hg10 mi
3:54 PM82 °FPassing clouds.6 mph51%30.02 "Hg10 mi
2:54 PM81 °FPassing clouds.7 mph53%30.02 "Hg10 mi
1:54 PM80 °FPassing clouds.6 mph54%30.03 "Hg10 mi
12:54 PM78 °FScattered clouds.10 mph58%30.06 "Hg10 mi
11:54 AM74 °FPartly sunny.7 mph64%30.09 "Hg10 mi
10:54 AM73 °FSunny.6 mph64%30.10 "Hg10 mi
9:54 AM69 °FSunny.5 mph70%30.10 "Hg10 mi
8:54 AM64 °FPassing clouds.6 mph75%30.10 "Hg10 mi
7:54 AM58 °FScattered clouds.No wind87%30.09 "Hg10 mi
6:54 AM56 °FPassing clouds.No wind90%30.08 "Hg10 mi
5:54 AM56 °FClear.3 mph90%30.08 "Hg9 mi
4:54 AM57 °FClear.No wind87%30.08 "Hg8 mi
3:54 AM58 °FClear.No wind87%30.07 "Hg8 mi
2:54 AM57 °FClear.No wind87%30.07 "Hg9 mi
1:54 AM59 °FClear.No wind84%30.08 "Hg10 mi
12:54 AM58 °FPassing clouds.No wind87%30.07 "Hg9 mi
Weather by CustomWeather, © 2014

See weather overviewHow to use our weather pages